Location: Carri�res
(48.9069°N, 2.1792°E)
Time: 12:24:35
(UTC+00:00)

SAR-Lupe-4 - Pass Details

Date: 17 January 2021
Orbit: 480 x 485 km, 98.2° (Epoch: 25 February)

Event Time Altitude Azimuth Distance (km) Brightness Sun altitude
Exits shadow 18:12:31 42° 77° (ENE) 709 3.9 -17.1°
Maximum altitude 18:12:58 44° 100° (E) 679 3.8 -17.2°
Drops below altitude 10° 18:16:23 10° 174° (S) 1,658 6.3 -17.7°
Sets 18:18:30 0° 181° (S) 2,532 7.4 -18.1°
